Location: Unspecified
(0.0000°N, 0.0000°E)
Time: 03:09:26
(UTC+00:00)

Envisat - Pass Details

Date: 06 August 2021
Orbit: 764 x 766 km, 98.2° (Epoch: 24 September)

Event Time Altitude Azimuth Distance (km) Brightness Sun altitude
Rises 05:09:06 0° 3° (N) 3,214 6.5 -13.6°
Reaches altitude 10° 05:11:26 10° 359° (N) 2,290 5.7 -13.0°
Maximum altitude 05:16:21 54° 282° (WNW) 919 3.1 -11.9°
Drops below altitude 10° 05:21:18 10° 205° (SSW) 2,299 5.1 -10.7°
Sets 05:23:39 0° 200° (SSW) 3,227 5.9 -10.1°
